Date,TemperatureHighF,TemperatureAvgF,TemperatureLowF,DewpointHighF,DewpointAvgF,DewpointLowF,HumidityHigh,HumidityAvg,HumidityLow,PressureMaxIn,PressureMinIn,WindSpeedMaxMPH,WindSpeedAvgMPH,GustSpeedMaxMPH,PrecipitationSumIn
2013-10-1,54,48,43,46,42,40,90,82,74,30.18,30.15,0,0,1,0.10
2013-10-2,59,47,34,44,40,33,97,79,47,30.19,30.09,4,1,10,0.02
2013-10-3,64,50,39,44,41,38,96,74,43,30.35,30.19,3,0,6,0.01
2013-10-4,75,51,34,46,38,33,97,68,23,30.42,30.26,2,0,6,0.00
2013-10-5,80,55,38,44,39,34,88,60,23,30.31,30.14,3,0,5,0.00
2013-10-6,79,56,38,47,39,31,94,60,20,30.18,30.03,3,0,9,0.00
2013-10-7,65,52,44,47,40,36,82,66,42,30.16,30.03,4,0,10,0.00
2013-10-8,59,47,36,45,40,34,96,79,50,30.17,29.96,2,0,8,0.00
2013-10-9,64,48,34,43,39,32,96,76,41,29.97,29.88,3,1,9,0.01
2013-10-10,67,50,39,46,41,37,94,74,42,30.06,29.94,2,0,5,0.00
2013-10-11,65,47,34,47,40,33,96,79,50,30.14,30.04,2,0,4,0.00
2013-10-12,56,46,38,49,41,-100,95,86,69,30.12,30.05,3,0,7,0.05
2013-10-13,65,48,38,45,41,37,96,78,41,30.23,30.12,3,0,6,0.03
2013-10-14,71,49,34,45,39,32,97,73,32,30.30,30.16,3,0,5,0.00
2013-10-15,76,52,34,43,36,32,93,61,24,30.25,30.08,3,0,6,0.00
2013-10-16,74,52,35,40,36,31,87,58,25,30.16,30.07,2,0,5,0.00
2013-10-17,74,52,36,44,40,33,94,66,32,30.20,30.06,2,0,4,0.00
2013-10-18,78,54,37,46,42,35,96,68,30,30.17,30.03,2,0,3,0.00
2013-10-19,78,54,37,46,39,-100,95,65,26,30.17,30.07,1,0,3,0.00
2013-10-20,78,54,38,47,42,35,94,68,32,30.15,30.01,1,0,4,0.00
2013-10-21,81,55,39,49,43,37,96,69,31,30.10,29.95,2,0,4,0.00
2013-10-22,80,56,39,47,43,37,95,66,29,30.09,29.94,2,0,4,0.00
2013-10-23,78,55,39,47,42,37,95,65,31,30.05,29.92,2,0,3,0.00
2013-10-24,76,54,38,46,40,35,93,63,31,30.07,29.98,2,0,3,0.00
2013-10-25,75,56,38,45,41,35,92,62,33,30.22,30.14,2,0,4,0.00
2013-10-26,73,52,36,44,39,-100,93,67,34,30.27,30.09,2,0,4,0.00
2013-10-27,57,47,36,48,40,34,95,79,56,30.09,29.76,6,1,18,0.00
2013-10-28,56,48,39,43,39,-100,93,76,58,29.86,29.71,2,0,6,0.00
2013-10-29,62,44,31,39,35,29,95,74,42,30.06,29.86,3,0,5,0.00
2013-10-30,65,48,37,43,38,35,92,72,40,30.21,30.05,3,0,8,0.00
2013-10-31,69,50,40,46,41,36,88,72,42,30.29,30.17,2,0,4,0.00